FW6525 Weather Reports


Display with metric or nautical units.
time (UTC)temp
F
wind
direction
speed
MPH
gust
MPH
rain 1hr
in
rain 24hr
in
rain mn
in
humidity
%
barometer
mb
20260507083511 63 312 3.0 9.0 0.00 0.00 0.00 77 1006.5
20260507083008 63 269 2.0 9.0 0.00 0.00 0.00 78 1006.6
20260507082511 63 299 4.0 7.0 0.00 0.00 0.00 78 1006.3
20260507082008 62 301 4.0 9.0 0.00 0.00 0.00 78 1006.5
20260507081510 62 335 3.0 9.0 0.00 0.00 0.00 80 1006.5
20260507081008 62 342 5.0 8.0 0.00 0.00 0.00 79 1006.3
20260507080511 62 307 2.0 10.0 0.00 0.00 0.00 79 1006.3
20260507080007 62 267 1.0 10.0 0.00 0.00 0.00 80 1006.4
20260507075510 62 260 2.0 11.0 0.00 0.00 0.00 80 1006.3
20260507074957 62 332 3.0 11.0 0.00 0.00 0.00 80 1006.3
20260507074456 62 268 3.0 13.0 0.00 0.00 0.00 79 1005.9
20260507073957 62 354 4.0 13.0 0.00 0.00 0.00 80 1005.9
20260507073456 62 18 2.0 9.0 0.00 0.00 0.00 80 1006.1
20260507072457 63 258 7.0 9.0 0.00 0.00 0.00 79 1005.8
20260507071957 62 259 2.0 9.0 0.00 0.00 0.00 80 1005.7
20260507071455 62 351 3.0 9.0 0.00 0.00 0.00 79 1005.6
20260507070957 62 268 4.0 9.0 0.00 0.00 0.00 79 1005.7
20260507070457 61 265 2.0 9.0 0.00 0.00 0.00 80 1005.5
20260507065957 61 228 5.0 9.0 0.00 0.00 0.00 80 1005.6
20260507065455 61 287 5.0 10.0 0.00 0.00 0.00 81 1005.5
20260507064957 61 320 2.0 10.0 0.00 0.00 0.00 81 1005.4
20260507064456 62 313 4.0 8.0 0.00 0.00 0.00 81 1005.6
20260507063957 62 289 5.0 7.0 0.00 0.00 0.00 81 1005.4
20260507063458 62 287 3.0 6.0 0.00 0.00 0.00 81 1005.2
20260507062457 60 187 1.0 7.0 0.00 0.00 0.00 82 1005.2
20260507061958 60 276 1.0 6.0 0.00 0.00 0.00 83 1005.1
20260507061457 60 257 1.0 6.0 0.00 0.00 0.00 83 1004.9
20260507060958 60 349 0.0 3.0 0.00 0.00 0.00 84 1005.2
20260507060457 60 211 1.0 2.0 0.00 0.00 0.00 84 1005.2
20260507055958 60 271 0.0 2.0 0.00 0.00 0.00 84 1005.2
20260507055457 59 284 2.0 2.0 0.00 0.00 0.00 85 1005.2
20260507054957 59 273 2.0 2.0 0.00 0.00 0.00 85 1004.9
20260507054456 59 217 0.0 2.0 0.00 0.00 0.00 86 1004.8
20260507053957 59 278 1.0 2.0 0.00 0.00 0.00 86 1004.9
20260507053456 58 251 0.0 2.0 0.00 0.00 0.00 86 1004.9
20260507052958 58 281 1.0 2.0 0.00 0.00 0.00 86 1004.8
20260507051957 58 278 0.0 2.0 0.00 0.00 0.00 86 1004.8
20260507051456 58 255 0.0 1.0 0.00 0.00 0.00 86 1004.7
20260507050958 58 247 0.0 1.0 0.00 0.00 0.00 86 1004.8
20260507045959 58 260 0.0 2.0 0.00 0.00 0.00 86 1004.5
20260507045457 58 274 0.0 2.0 0.00 0.00 0.00 86 1004.5
20260507044959 58 247 0.0 2.0 0.00 0.00 0.00 86 1004.4
20260507044458 58 256 1.0 2.0 0.00 0.00 0.00 86 1004.6
20260507043958 58 247 0.0 0.0 0.00 0.00 0.00 86 1004.4
20260507042958 58 260 0.0 2.0 0.00 0.00 0.00 86 1004.4
20260507042457 58 258 0.0 2.0 0.00 0.00 0.00 86 1004.3
20260507040957 58 283 1.0 3.0 0.00 0.00 0.00 85 1003.9
20260507040456 58 284 1.0 4.0 0.00 0.00 0.00 84 1004.1
20260507035958 58 294 3.0 4.0 0.00 0.00 0.00 84 1004.1
20260507035456 58 276 0.0 1.0 0.00 0.00 0.00 83 1003.6
20260507034957 58 256 0.0 1.0 0.00 0.00 0.00 83 1003.7
20260507034456 58 269 0.0 3.0 0.00 0.00 0.00 82 1003.8
20260507033958 58 248 1.0 3.0 0.00 0.00 0.00 82 1003.8
20260507033457 59 248 1.0 3.0 0.00 0.00 0.00 82 1003.6
20260507032456 59 285 1.0 2.0 0.00 0.00 0.00 81 1003.4
20260507031957 58 289 2.0 2.0 0.00 0.00 0.00 81 1003.7
20260507031456 58 261 0.0 1.0 0.00 0.00 0.00 81 1003.3
20260507030957 59 264 0.0 1.0 0.00 0.00 0.00 81 1003.3
20260507030456 59 276 0.0 1.0 0.00 0.00 0.00 81 1003.5
20260507025958 58 228 0.0 1.0 0.00 0.00 0.00 81 1003.1
20260507025456 58 233 0.0 1.0 0.00 0.00 0.00 81 1003.1
20260507024958 58 233 0.0 1.0 0.00 0.00 0.00 81 1003.2
20260507024456 58 259 0.0 0.0 0.00 0.00 0.00 82 1003.1
20260507023958 58 259 0.0 1.0 0.00 0.00 0.00 82 1003.1
20260507023456 58 235 0.0 1.0 0.00 0.00 0.00 82 1003.4
20260507022957 58 247 0.0 1.0 0.00 0.00 0.00 82 1003.1
20260507021959 57 246 0.0 1.0 0.00 0.00 0.00 83 1003.2
20260507021458 57 248 0.0 1.0 0.00 0.00 0.00 84 1003.0
20260507020958 57 233 1.0 1.0 0.00 0.00 0.00 84 1002.9
20260507020457 57 234 0.0 1.0 0.00 0.00 0.00 84 1003.1
20260507015957 57 234 0.0 1.0 0.00 0.00 0.00 84 1003.3
20260507015444 56 275 0.0 1.0 0.00 0.00 0.00 83 1003.3
20260507014943 56 247 0.0 1.0 0.00 0.00 0.00 83 1003.1
20260507014444 56 246 0.0 1.0 0.00 0.00 0.00 83 1003.3
20260507013932 57 246 0.0 0.0 0.00 0.00 0.00 82 1003.0
20260507013431 57 247 0.0 1.0 0.00 0.00 0.00 82 1003.0
20260507012932 57 248 0.0 1.0 0.00 0.00 0.00 82 1003.1
20260507012432 57 243 0.0 2.0 0.00 0.00 0.00 82 1003.0
20260507011932 57 235 1.0 2.0 0.00 0.00 0.00 81 1002.7
20260507011430 57 227 1.0 2.0 0.00 0.00 0.00 81 1003.1
20260507010931 58 244 0.0 2.0 0.00 0.00 0.00 81 1002.8
20260507010430 57 233 0.0 2.0 0.00 0.00 0.00 81 1002.8
20260507005932 57 269 0.0 2.0 0.00 0.00 0.00 81 1003.1
20260507005431 57 254 0.0 4.0 0.00 0.00 0.00 81 1003.0
20260507004933 57 254 0.0 4.0 0.00 0.00 0.00 81 1002.6
20260507004419 57 233 1.0 1.0 0.00 0.00 0.00 80 1003.0
20260507003919 57 259 0.0 2.0 0.00 0.00 0.00 79 1002.8
20260507002907 58 278 0.0 1.0 0.00 0.00 0.00 79 1002.7
20260507002406 58 246 0.0 1.0 0.00 0.00 0.00 79 1002.9
20260507001907 58 246 0.0 2.0 0.00 0.00 0.00 79 1002.9
20260507001406 58 224 1.0 2.0 0.00 0.00 0.00 78 1002.8
20260507000907 58 234 0.0 0.0 0.00 0.00 0.00 77 1002.8
20260507000406 59 234 0.0 0.0 0.00 0.00 0.00 76 1002.7
20260506235907 59 234 0.0 0.0 0.00 0.00 0.00 76 1002.8
20260506235406 60 234 0.0 1.0 0.00 0.00 0.00 74 1002.7
20260506234907 60 231 0.0 1.0 0.00 0.00 0.00 74 1002.8
20260506234406 61 231 0.0 1.0 0.00 0.00 0.00 73 1002.8
20260506233907 61 230 1.0 1.0 0.00 0.00 0.00 72 1002.7
20260506233406 61 231 0.0 1.0 0.00 0.00 0.00 72 1002.7
20260506232907 62 254 0.0 2.0 0.00 0.00 0.00 71 1002.9
20260506232406 62 255 0.0 2.0 0.00 0.00 0.00 71 1002.9
20260506231907 62 270 0.0 2.0 0.00 0.00 0.00 71 1003.2
20260506231406 62 282 1.0 1.0 0.00 0.00 0.00 71 1003.2
20260506230907 62 246 0.0 1.0 0.00 0.00 0.00 71 1002.7
20260506225907 62 242 0.0 1.0 0.00 0.00 0.00 71 1003.0
20260506225406 62 242 0.0 1.0 0.00 0.00 0.00 70 1002.8
20260506224907 62 242 0.0 0.0 0.00 0.00 0.00 71 1002.7
20260506224406 62 242 0.0 0.0 0.00 0.00 0.00 71 1002.9
20260506223909 62 242 0.0 0.0 0.00 0.00 0.00 70 1002.9
20260506223402 62 251 0.0 0.0 0.00 0.00 0.00 70 1002.6
20260506222856 62 242 0.0 0.0 0.00 0.00 0.00 70 1002.8
20260506221855 63 234 0.0 1.0 0.00 0.00 0.00 70 1002.7
20260506221357 63 225 0.0 1.0 0.00 0.00 0.00 69 1002.8
20260506220856 64 228 0.0 1.0 0.00 0.00 0.00 67 1002.6
20260506220357 64 234 0.0 2.0 0.00 0.00 0.00 67 1002.9
20260506215855 65 237 0.0 3.0 0.00 0.00 0.00 66 1002.6
20260506214356 65 226 1.0 2.0 0.00 0.00 0.00 66 1002.7
20260506213855 65 235 0.0 2.0 0.00 0.00 0.00 65 1002.6
20260506213357 66 214 1.0 4.0 0.00 0.00 0.00 65 1002.8
20260506212855 66 257 0.0 4.0 0.00 0.00 0.00 64 1002.7
20260506212357 66 312 1.0 4.0 0.00 0.00 0.00 63 1002.6
20260506211856 67 300 0.0 3.0 0.00 0.00 0.00 63 1002.6
20260506211357 67 276 1.0 3.0 0.00 0.00 0.00 63 1002.6
20260506210855 67 244 1.0 4.0 0.00 0.00 0.00 63 1002.8
20260506205855 67 351 0.0 4.0 0.00 0.00 0.00 62 1002.8
20260506204856 67 20 1.0 3.0 0.00 0.00 0.00 63 1002.6
20260506204356 67 321 2.0 3.0 0.00 0.00 0.00 63 1002.3
20260506203854 67 27 0.0 4.0 0.00 0.00 0.00 64 1002.3
20260506203356 66 92 2.0 4.0 0.00 0.00 0.00 65 1002.5
20260506202854 66 209 1.0 2.0 0.00 0.00 0.00 65 1002.6
20260506202356 66 225 1.0 2.0 0.00 0.00 0.00 65 1002.1
20260506201854 65 240 0.0 2.0 0.00 0.00 0.00 66 1002.3
20260506201355 66 237 0.0 2.0 0.00 0.00 0.00 65 1002.2
20260506200854 66 251 0.0 2.0 0.00 0.00 0.00 65 1002.2
20260506200357 66 259 0.0 2.0 0.00 0.00 0.00 65 1002.3
20260506195855 66 205 1.0 2.0 0.00 0.00 0.00 65 1002.0
20260506194355 66 36 1.0 2.0 0.00 0.00 0.00 63 1002.2
20260506192854 66 145 1.0 2.0 0.00 0.00 0.00 64 1002.1
20260506192355 67 280 0.0 2.0 0.00 0.00 0.00 63 1002.2
20260506191855 67 202 0.0 2.0 0.00 0.00 0.00 62 1002.3
20260506190855 67 324 1.0 2.0 0.00 0.00 0.00 62 1002.2
20260506190355 67 24 1.0 2.0 0.00 0.00 0.00 62 1002.0
20260506185854 67 236 1.0 2.0 0.00 0.00 0.00 62 1002.1
20260506185355 68 196 0.0 2.0 0.00 0.00 0.00 61 1002.1
20260506184855 68 252 0.0 3.0 0.00 0.00 0.00 60 1002.0
20260506184355 68 299 0.0 3.0 0.00 0.00 0.00 60 1001.9
20260506183855 68 232 0.0 1.0 0.00 0.00 0.00 61 1002.2
20260506183357 68 218 0.0 1.0 0.00 0.00 0.00 61 1001.8
20260506182855 69 233 0.0 2.0 0.00 0.00 0.00 60 1001.6
20260506182357 69 262 0.0 2.0 0.00 0.00 0.00 60 1001.7
20260506181932 69 249 0.0 2.0 0.00 0.00 0.00 60 1001.8
20260506181343 69 199 1.0 2.0 0.00 0.00 0.00 60 1001.5
20260506180843 69 200 2.0 3.0 0.00 0.00 0.00 61 1001.7
20260506180331 69 182 1.0 3.0 0.00 0.00 0.00 61 1001.6
20260506175830 69 237 0.0 1.0 0.00 0.00 0.00 63 1001.6
20260506175331 70 223 0.0 1.0 0.00 0.00 0.00 62 1001.6
20260506174830 70 244 0.0 1.0 0.00 0.00 0.00 60 1001.7
20260506174332 71 237 0.0 1.0 0.00 0.00 0.00 59 1001.7
20260506173332 71 170 0.0 2.0 0.00 0.00 0.00 59 1001.5
20260506172830 71 170 1.0 2.0 0.00 0.00 0.00 59 1001.5
20260506172331 72 167 2.0 2.0 0.00 0.00 0.00 59 1001.5
20260506171831 73 243 0.0 1.0 0.00 0.00 0.00 55 1001.5
20260506171331 74 276 1.0 1.0 0.00 0.00 0.00 56 1001.5
20260506170826 73 262 0.0 1.0 0.00 0.00 0.00 54 1001.5
20260506170318 73 245 0.0 1.0 0.00 0.00 0.00 55 1001.8
20260506165819 73 276 1.0 1.0 0.00 0.00 0.00 55 1001.5
20260506165318 72 252 0.0 2.0 0.00 0.00 0.00 56 1001.5
20260506164819 72 270 1.0 3.0 0.00 0.00 0.00 55 1001.7
20260506164319 72 260 0.0 4.0 0.00 0.00 0.00 55 1001.6
20260506163820 72 258 2.0 4.0 0.00 0.00 0.00 54 1001.7
20260506163319 72 243 1.0 4.0 0.00 0.00 0.00 54 1001.7
20260506162820 72 302 1.0 4.0 0.00 0.00 0.00 55 1001.7
20260506162318 72 253 0.0 4.0 0.00 0.00 0.00 55 1001.7
20260506160819 73 310 1.0 6.0 0.00 0.00 0.00 52 1001.8
20260506155819 74 271 1.0 7.0 0.00 0.00 0.00 51 1002.0
20260506155320 74 283 2.0 7.0 0.00 0.00 0.00 51 1002.0
20260506154819 74 294 1.0 7.0 0.00 0.00 0.00 51 1001.9
20260506154318 74 261 2.0 6.0 0.00 0.00 0.00 49 1002.1
20260506153329 74 265 4.0 7.0 0.00 0.00 0.00 47 1002.1
20260506152807 74 303 3.0 9.0 0.00 0.00 0.00 47 1002.2
20260506152308 74 337 3.0 9.0 0.00 0.00 0.00 46 1002.5
20260506151803 74 262 5.0 7.0 0.00 0.00 0.00 45 1002.2
20260506151256 76 328 1.0 7.0 0.00 0.00 0.00 45 1002.7
20260506150756 76 244 3.0 7.0 0.00 0.00 0.00 45 1002.6
20260506150304 76 263 2.0 7.0 0.00 0.00 0.00 46 1002.3
20260506145255 76 265 1.0 13.0 0.00 0.00 0.00 47 1002.5
20260506144756 76 233 6.0 13.0 0.00 0.00 0.00 46 1002.8
20260506144254 76 247 4.0 11.0 0.00 0.00 0.00 45 1002.8
20260506143755 75 274 4.0 11.0 0.00 0.00 0.00 45 1002.7
20260506143254 76 273 3.0 10.0 0.00 0.00 0.00 46 1002.7
20260506142755 76 271 5.0 10.0 0.00 0.00 0.00 45 1002.7
20260506142254 75 254 7.0 9.0 0.00 0.00 0.00 45 1002.9
20260506140757 76 258 1.0 11.0 0.00 0.00 0.00 47 1002.6
20260506135757 75 258 3.0 10.0 0.00 0.00 0.00 51 1002.9
20260506135256 77 203 2.0 9.0 0.00 0.00 0.00 49 1002.8
20260506134756 77 331 5.0 9.0 0.00 0.00 0.00 48 1002.8
20260506134256 76 282 5.0 10.0 0.00 0.00 0.00 49 1002.9
20260506133757 76 255 1.0 10.0 0.00 0.00 0.00 50 1002.8
20260506132255 77 319 5.0 6.0 0.00 0.00 0.00 48 1003.0
20260506131757 77 255 4.0 7.0 0.00 0.00 0.00 49 1002.9
20260506131256 75 221 2.0 8.0 0.00 0.00 0.00 50 1002.8
20260506130255 76 298 6.0 8.0 0.00 0.00 0.00 52 1003.3
20260506125757 74 351 5.0 8.0 0.00 0.00 0.00 52 1003.2
20260506125256 75 230 3.0 9.0 0.00 0.00 0.00 52 1003.3
20260506124757 76 272 2.0 9.0 0.00 0.00 0.00 51 1003.3
20260506124254 75 252 5.0 10.0 0.00 0.00 0.00 52 1003.4
20260506123756 75 271 2.0 10.0 0.00 0.00 0.00 52 1003.5
20260506123254 74 319 4.0 10.0 0.00 0.00 0.00 52 1003.6
20260506122755 74 303 4.0 10.0 0.00 0.00 0.00 53 1003.6
20260506121755 76 325 4.0 10.0 0.00 0.00 0.00 52 1003.6
20260506121255 74 234 2.0 11.0 0.00 0.00 0.00 54 1003.3
20260506120755 76 262 9.0 14.0 0.00 0.00 0.00 53 1003.6
20260506120253 74 319 6.0 14.0 0.00 0.00 0.00 53 1003.6
20260506115754 74 292 4.0 16.0 0.00 0.00 0.00 54 1003.5
20260506115253 75 329 10.0 16.0 0.00 0.00 0.00 53 1003.5
20260506114754 75 187 1.0 10.0 0.00 0.00 0.00 53 1003.4
20260506114253 74 35 1.0 13.0 0.00 0.00 0.00 54 1003.7
20260506113754 74 244 3.0 13.0 0.00 0.00 0.00 55 1003.5
20260506113253 74 2 3.0 11.0 0.00 0.00 0.00 54 1003.6
20260506112253 75 297 6.0 10.0 0.00 0.00 0.00 54 1003.2
20260506111754 74 336 1.0 10.0 0.00 0.00 0.00 56 1003.6
20260506111253 73 285 3.0 8.0 0.00 0.00 0.00 57 1003.4
20260506110253 73 259 2.0 13.0 0.00 0.00 0.00 58 1003.3
20260506105753 74 336 8.0 13.0 0.00 0.00 0.00 55 1003.7
20260506105253 74 38 6.0 11.0 0.00 0.00 0.00 55 1003.9
20260506104756 74 70 3.0 10.0 0.00 0.00 0.00 56 1003.5
20260506104253 75 341 3.0 11.0 0.00 0.00 0.00 55 1003.7
20260506103754 74 270 4.0 11.0 0.00 0.00 0.00 56 1003.7
20260506103254 72 279 3.0 9.0 0.00 0.00 0.00 59 1003.7
20260506102754 74 251 4.0 9.0 0.00 0.00 0.00 56 1003.9
20260506101755 74 354 6.0 8.0 0.00 0.00 0.00 57 1003.8
20260506101254 73 248 2.0 11.0 0.00 0.00 0.00 57 1003.7
20260506100804 71 308 8.0 13.0 0.00 0.00 0.00 59 1003.4
20260506100253 72 20 7.0 13.0 0.00 0.00 0.00 59 1003.7
20260506095755 71 285 4.0 11.0 0.00 0.00 0.00 59 1003.7
20260506094754 71 258 0.0 8.0 0.00 0.00 0.00 62 1003.4
20260506094253 71 330 3.0 9.0 0.00 0.00 0.00 61 1003.4
20260506093754 70 250 5.0 10.0 0.00 0.00 0.00 61 1003.3
20260506093253 70 287 5.0 10.0 0.00 0.00 0.00 61 1003.6
20260506091754 71 271 3.0 11.0 0.00 0.00 0.00 60 1003.4
20260506091253 71 349 1.0 11.0 0.00 0.00 0.00 61 1003.5
20260506090754 71 334 7.0 11.0 0.00 0.00 0.00 61 1003.7
20260506090252 71 214 1.0 9.0 0.00 0.00 0.00 62 1003.5
20260506085754 70 298 1.0 9.0 0.00 0.00 0.00 62 1003.3
20260506085254 71 323 4.0 9.0 0.00 0.00 0.00 61 1003.2
20260506084754 70 305 3.0 9.0 0.00 0.00 0.00 62 1003.5
20260506084253 70 7 6.0 9.0 0.00 0.00 0.00 63 1003.4